Location: Moscow
(55.7500°N, 37.5830°E)
Time: 05:22:13
(UTC+03:00)

Transit 4A - Pass Details

Date: 06 December 2021
Orbit: 863 x 981 km, 66.8° (Epoch: 26 January)

Event Time Altitude Azimuth Distance (km) Brightness Sun altitude
Rises 19:57:09 0° 215° (SW) 3,469 11.2 -32.0°
Reaches altitude 10° 19:59:36 10° 214° (SW) 2,546 10.4 -32.3°
Enters shadow 20:02:39 33° 209° (SSW) 1,472 9.0 -32.7°
